Location: Caltech
(34.1382°N, 118.1253°W)
Time: 14:40:25
(UTC-08:00)

ASTRO E2 - Visible Passes

Search period start: 27 February 2015 00:00
Search period end: 09 March 2015 01:00
Orbit: 527 x 535 km, 31.4° (Epoch: 26 February)

Date Brightness Start Highest point End Pass type
(mag) Time Alt. Az. Time Alt. Az. Time Alt. Az.
27 Feb 3.6 18:57:27 10° W 19:01:20 42° SSW 19:03:20 24° SE visible
28 Feb 3.8 18:44:39 10° W 18:48:28 38° SSW 18:51:24 15° SE visible
01 Mar 4.1 18:31:53 10° W 18:35:36 33° SSW 18:39:17 10° SE visible
02 Mar 4.4 18:19:08 10° W 18:22:41 29° SSW 18:26:14 10° SE visible
